Location: ?
(35.4214°N, 139.3011°E)
Time: 22:22:25
(UTC+00:00)

DMSP B5D2-2 - Pass Details

Date: 14 July 2020
Orbit: 789 x 807 km, 98.3° (Epoch: 10 August)

Event Time Altitude Azimuth Distance (km) Brightness Sun altitude
Rises 10:18:54 0° 17° (NNE) 3,292 7.5 -4.4°
Reaches altitude 10° 10:21:16 10° 21° (NNE) 2,358 6.7 -4.9°
Maximum altitude 10:26:24 58° 101° (E) 919 4.2 -5.7°
Drops below altitude 10° 10:31:29 10° 180° (S) 2,343 6.2 -6.6°
Sets 10:33:50 0° 184° (S) 3,269 7.0 -7.0°
